Flag for U.S.A. Weather past 2 weeks in Overland Park, Kansas, U.S.A.

Now
72 °F

Clear.


Feels Like: 72 °F
Forecast: 69 / 90 °F
Wind: 6 mph from Southeast

Location: Johnson County Executive Airport

Current Time: Aug 31, 2014 at 1:47:40 AM

Latest Report: Aug 31, 2014 at 12:53 AM


Visibility: 10 mi

Pressure: 29.87 "Hg

Humidity: 81%

Dew point: 66 °F

Location of Overland ParkLocation

Historic Weather in Overland Park — Graph

°F

Overland Park temperature yesterday

Maximum temperature yesterday: 88 °F (at 4:53 PM)
Minimum temperature yesterday: 68 °F (at 5:53 AM)
Average temperature yesterday: 77 °F

Past Weeks' High & Low Weather Summary

 TemperatureHumidityPressure
High96 °F (Aug 23, 3:53 PM)100% (Aug 17, 7:53 AM)30.11 "Hg (Aug 17, 7:53 AM)
Low66 °F (Aug 18, 3:53 AM)34% (Aug 23, 4:53 PM)29.72 "Hg (Aug 19, 5:53 AM)
Average80 °F70%29.88 "Hg
* Reported Aug 15 11:53 PM — Aug 30 11:53 PM, Overland Park, Weather by CustomWeather, © 2014

Note: Actual official high and low records may vary slightly from our data, if they occured in-between our weather recording intervals... More about our weather records

Advertising

Overland Park weather history for previous 24 hours

 ConditionsComfort  
Time TempWeatherWind HumidityBarometerVisibility
11:53 PM
Aug 30
72 °FClear.7 mph84%29.87 "Hg10 mi
10:53 PM74 °FClear.6 mph79%29.87 "Hg10 mi
9:53 PM76 °FClear.5 mph74%29.87 "Hg10 mi
8:53 PM78 °FClear.6 mph66%29.86 "Hg10 mi
7:53 PM81 °FSunny.5 mph58%29.86 "Hg10 mi
6:53 PM86 °FSunny.3 mph49%29.85 "Hg10 mi
5:53 PM88 °FSunny.5 mph42%29.84 "Hg10 mi
4:53 PM88 °FPassing clouds.6 mph45%29.84 "Hg10 mi
3:53 PM87 °FPassing clouds.5 mph45%29.86 "Hg10 mi
2:53 PM85 °FPassing clouds.5 mph51%29.88 "Hg10 mi
1:53 PM86 °FSunny.7 mph48%29.89 "Hg10 mi
12:53 PM84 °FSunny.7 mph51%29.90 "Hg10 mi
11:53 AM81 °FSunny.7 mph60%29.90 "Hg10 mi
10:53 AM79 °FPassing clouds.5 mph72%29.91 "Hg10 mi
9:53 AM76 °FScattered clouds.3 mph77%29.90 "Hg10 mi
8:53 AM73 °FSunny.7 mph84%29.90 "Hg10 mi
7:53 AM69 °FSunny.6 mph90%29.90 "Hg10 mi
6:53 AM68 °FClear.5 mph93%29.88 "Hg9 mi
5:53 AM68 °FClear.5 mph93%29.87 "Hg10 mi
4:53 AM69 °FClear.5 mph90%29.86 "Hg10 mi
3:53 AM69 °FClear.6 mph90%29.85 "Hg10 mi
2:53 AM71 °FClear.6 mph84%29.85 "Hg10 mi
1:53 AM73 °FClear.3 mph76%29.85 "Hg10 mi
Weather by CustomWeather, © 2014

See weather overviewHow to use our weather pages